This is the latest recevied weather packets stored in our database for station/object N4AR. If no packets are shown the sender has not sent any weather packets the latest 10 day(s).
| Time | Temp. | Humidity | Pressure | Rain* | Wind** | Luminosity | Snow |
|---|---|---|---|---|---|---|---|
| 1777336953 | 12.22° C | 73% | 1024.7 hPa | 0 mm | - | 0 W/m² | - |
| 1777336652 | 12.22° C | 74% | 1025 hPa | 0 mm | - | 0 W/m² | - |
| 1777336350 | 12.22° C | 73% | 1024.4 hPa | 0 mm | - | 0 W/m² | - |
| 1777336047 | 12.78° C | 73% | 1024.7 hPa | 0 mm | - | 0 W/m² | - |
| 1777335743 | 12.78° C | 71% | 1024.4 hPa | 0 mm | - | 0 W/m² | - |
| 1777335440 | 12.78° C | 70% | 1024.4 hPa | 0 mm | - | 0 W/m² | - |
| 1777335137 | 13.33° C | 68% | 1024.5 hPa | 0 mm | - | 0 W/m² | - |
| 1777334835 | 13.33° C | 66% | 1024.3 hPa | 0 mm | - | 0 W/m² | - |
| 1777334533 | 13.33° C | 66% | 1024.3 hPa | 0 mm | - | 0 W/m² | - |
| 1777334229 | 13.33° C | 66% | 1024.5 hPa | 0 mm | - | 1 W/m² | - |
| 1777333928 | 13.89° C | 65% | 1024.2 hPa | 0 mm | - | 2 W/m² | - |
| 1777333626 | 13.89° C | 65% | 1024.2 hPa | 0 mm | - | 3 W/m² | - |
| 1777333321 | 13.89° C | 65% | 1024.3 hPa | 0 mm | - | 5 W/m² | - |
| 1777333021 | 13.89° C | 64% | 1024.2 hPa | 0 mm | - | 8 W/m² | - |
| 1777332719 | 14.44° C | 64% | 1024.1 hPa | 0 mm | - | 11 W/m² | - |
| 1777332415 | 14.44° C | 63% | 1024 hPa | 0 mm | - | 14 W/m² | - |
| 1777332111 | 15° C | 62% | 1024 hPa | 0 mm | - | 16 W/m² | - |
| 1777331809 | 15° C | 62% | 1024 hPa | 0 mm | - | 19 W/m² | - |
| 1777331505 | 15° C | 59% | 1024 hPa | 0 mm | - | 20 W/m² | - |
| 1777331203 | 15.56° C | 60% | 1023.9 hPa | 0 mm | - | 22 W/m² | - |
| 1777330900 | 15.56° C | 60% | 1023.7 hPa | 0 mm | - | 25 W/m² | - |
| 1777330597 | 15.56° C | 59% | 1023.8 hPa | 0 mm | - | 27 W/m² | - |
| 1777330294 | 15.56° C | 58% | 1023.7 hPa | 0 mm | - | 48 W/m² | - |
| 1777329992 | 16.11° C | 57% | 1023.7 hPa | 0 mm | - | 34 W/m² | - |
| 1777329691 | 16.67° C | 56% | 1023.8 hPa | 0 mm | - | 36 W/m² | - |
* Rain latest hour (hover to see other rain measurements)
** Current wind speed in m/s (hover to see current wind gust speed)